Time,TemperatureF,DewpointF,PressureIn,WindDirection,WindDirectionDegrees,WindSpeedMPH,WindSpeedGustMPH,Humidity,HourlyPrecipIn,Conditions,Clouds,dailyrainin,SoftwareType,DateUTC
2013-01-13 00:02:00,-17.0,-32.8,31.39,SW,225,0.0,0.0,43,0.00,,,0.00,meteohub,2013-01-13 07:02:00,
2013-01-13 00:07:00,-17.1,-33.0,31.39,SW,225,0.0,0.0,43,0.00,,,0.00,meteohub,2013-01-13 07:07:00,
2013-01-13 00:12:00,-17.3,-33.2,31.39,West,270,0.0,0.0,43,0.00,,,0.00,meteohub,2013-01-13 07:12:00,
2013-01-13 00:17:00,-17.3,-33.2,31.39,SW,225,0.0,0.0,43,0.00,,,0.00,meteohub,2013-01-13 07:17:00,
2013-01-13 00:22:00,-17.3,-33.2,31.39,SW,225,0.0,0.0,43,0.00,,,0.00,meteohub,2013-01-13 07:22:00,
2013-01-13 00:27:00,-17.1,-33.0,31.39,SW,225,0.0,0.0,43,0.00,,,0.00,meteohub,2013-01-13 07:27:00,
2013-01-13 00:32:00,-17.1,-33.0,31.39,NW,315,0.0,0.0,43,0.00,,,0.00,meteohub,2013-01-13 07:32:00,
2013-01-13 00:37:00,-17.1,-33.0,31.39,SW,225,0.0,0.0,43,0.00,,,0.00,meteohub,2013-01-13 07:37:00,
2013-01-13 00:42:00,-17.3,-33.2,31.39,SW,225,0.0,0.0,43,0.00,,,0.00,meteohub,2013-01-13 07:42:00,
2013-01-13 00:47:00,-17.3,-33.2,31.39,SE,135,0.0,0.0,43,0.00,,,0.00,meteohub,2013-01-13 07:47:00,
2013-01-13 00:52:00,-17.5,-33.3,31.39,South,180,0.0,0.0,43,0.00,,,0.00,meteohub,2013-01-13 07:52:00,
2013-01-13 00:57:00,-17.7,-33.9,31.39,South,180,0.0,0.0,42,0.00,,,0.00,meteohub,2013-01-13 07:57:00,
2013-01-13 01:02:00,-17.7,-33.9,31.39,SW,225,0.0,0.0,42,0.00,,,0.00,meteohub,2013-01-13 08:02:00,
2013-01-13 01:07:00,-17.7,-33.9,31.39,SW,225,0.0,0.0,42,0.00,,,0.00,meteohub,2013-01-13 08:07:00,
2013-01-13 01:12:00,-17.9,-34.1,31.39,SW,225,0.0,0.0,42,0.00,,,0.00,meteohub,2013-01-13 08:12:00,
2013-01-13 01:17:00,-17.9,-34.1,31.39,SW,225,0.0,0.0,42,0.00,,,0.00,meteohub,2013-01-13 08:17:00,
2013-01-13 01:22:00,-17.5,-33.3,31.39,West,270,0.0,0.0,43,0.00,,,0.00,meteohub,2013-01-13 08:22:00,
2013-01-13 01:27:00,-17.3,-33.2,31.39,West,270,0.0,0.0,43,0.00,,,0.00,meteohub,2013-01-13 08:27:00,
2013-01-13 01:33:00,-17.1,-33.0,31.39,NW,315,0.0,0.0,43,0.00,,,0.00,meteohub,2013-01-13 08:33:00,
2013-01-13 01:38:00,-17.5,-33.3,31.39,South,180,0.0,0.0,43,0.00,,,0.00,meteohub,2013-01-13 08:38:00,
2013-01-13 01:43:00,-17.9,-33.5,31.39,SW,225,0.0,0.0,43,0.00,,,0.00,meteohub,2013-01-13 08:43:00,
2013-01-13 01:49:00,-18.0,-34.2,31.39,SW,225,0.0,0.0,42,0.00,,,0.00,meteohub,2013-01-13 08:49:00,
2013-01-13 01:55:00,-18.2,-34.4,31.39,SW,225,0.0,0.0,42,0.00,,,0.00,meteohub,2013-01-13 08:55:00,
2013-01-13 02:00:00,-18.4,-34.4,31.39,SW,225,0.0,0.0,42,0.00,,,0.00,meteohub,2013-01-13 09:00:00,
2013-01-13 02:05:00,-18.6,-34.2,31.39,SW,225,0.0,0.0,43,0.00,,,0.00,meteohub,2013-01-13 09:05:00,
2013-01-13 02:11:00,-18.8,-34.4,31.40,SW,225,0.0,0.0,43,0.00,,,0.00,meteohub,2013-01-13 09:11:00,
2013-01-13 02:16:00,-18.8,-34.4,31.39,West,270,0.0,0.0,43,0.00,,,0.00,meteohub,2013-01-13 09:16:00,
2013-01-13 02:22:00,-18.2,-33.9,31.39,SW,225,0.0,0.0,43,0.00,,,0.00,meteohub,2013-01-13 09:22:00,
2013-01-13 02:27:00,-18.2,-33.9,31.39,SW,225,0.0,0.0,43,0.00,,,0.00,meteohub,2013-01-13 09:27:00,
2013-01-13 02:32:00,-18.2,-33.9,31.40,SW,225,0.0,0.0,43,0.00,,,0.00,meteohub,2013-01-13 09:32:00,
2013-01-13 02:37:00,-18.2,-33.9,31.40,SW,225,0.0,0.0,43,0.00,,,0.00,meteohub,2013-01-13 09:37:00,
2013-01-13 02:42:00,-18.4,-34.1,31.39,SW,225,0.0,0.0,43,0.00,,,0.00,meteohub,2013-01-13 09:42:00,
2013-01-13 02:47:00,-18.8,-34.4,31.39,West,270,0.0,0.0,43,0.00,,,0.00,meteohub,2013-01-13 09:47:00,
2013-01-13 02:52:00,-18.9,-34.6,31.39,SW,225,0.0,0.0,43,0.00,,,0.00,meteohub,2013-01-13 09:52:00,
2013-01-13 02:57:00,-18.9,-34.6,31.39,SW,225,0.0,0.0,43,0.00,,,0.00,meteohub,2013-01-13 09:57:00,
2013-01-13 03:02:00,-19.1,-34.8,31.39,SW,225,0.0,0.0,43,0.00,,,0.00,meteohub,2013-01-13 10:02:00,
2013-01-13 03:07:00,-19.1,-34.8,31.39,SW,225,0.0,0.0,43,0.00,,,0.00,meteohub,2013-01-13 10:07:00,
2013-01-13 03:12:00,-19.1,-34.8,31.39,SW,225,0.0,0.0,43,0.00,,,0.00,meteohub,2013-01-13 10:12:00,
2013-01-13 03:18:00,-18.6,-33.9,31.39,SW,225,0.0,0.0,44,0.00,,,0.00,meteohub,2013-01-13 10:18:00,
2013-01-13 03:23:00,-18.6,-33.9,31.39,South,180,0.0,0.0,44,0.00,,,0.00,meteohub,2013-01-13 10:23:00,
2013-01-13 03:29:00,-19.1,-34.8,31.39,West,270,0.0,0.0,43,0.00,,,0.00,meteohub,2013-01-13 10:29:00,
2013-01-13 03:35:00,-19.1,-34.8,31.38,SW,225,0.0,0.0,43,0.00,,,0.00,meteohub,2013-01-13 10:35:00,
2013-01-13 03:40:00,-19.1,-34.8,31.38,West,270,0.0,0.0,43,0.00,,,0.00,meteohub,2013-01-13 10:40:00,
2013-01-13 03:45:00,-19.3,-35.0,31.38,South,180,0.0,0.0,43,0.00,,,0.00,meteohub,2013-01-13 10:45:00,
2013-01-13 03:51:00,-19.3,-35.0,31.38,SW,225,0.0,0.0,43,0.00,,,0.00,meteohub,2013-01-13 10:51:00,
2013-01-13 03:56:00,-19.1,-34.8,31.38,North,0,0.0,0.0,43,0.00,,,0.00,meteohub,2013-01-13 10:56:00,
2013-01-13 04:02:00,-19.3,-35.0,31.38,SW,225,0.0,0.0,43,0.00,,,0.00,meteohub,2013-01-13 11:02:00,
2013-01-13 04:07:00,-19.7,-35.3,31.38,SW,225,0.0,0.0,43,0.00,,,0.00,meteohub,2013-01-13 11:07:00,
2013-01-13 04:12:00,-20.0,-35.5,31.38,South,180,0.0,0.0,43,0.00,,,0.00,meteohub,2013-01-13 11:12:00,
2013-01-13 04:17:00,-20.2,-35.7,31.38,SW,225,0.0,0.0,43,0.00,,,0.00,meteohub,2013-01-13 11:17:00,
2013-01-13 04:23:00,-20.4,-35.9,31.38,SW,225,0.0,0.0,43,0.00,,,0.00,meteohub,2013-01-13 11:23:00,
2013-01-13 04:29:00,-20.2,-36.2,31.38,West,270,0.0,0.0,42,0.00,,,0.00,meteohub,2013-01-13 11:29:00,
2013-01-13 04:34:00,-19.8,-35.5,31.38,West,270,0.0,0.0,43,0.00,,,0.00,meteohub,2013-01-13 11:34:00,
2013-01-13 04:39:00,-19.7,-35.3,31.38,SW,225,0.0,0.0,43,0.00,,,0.00,meteohub,2013-01-13 11:39:00,
2013-01-13 04:45:00,-19.7,-35.3,31.38,SW,225,0.0,0.0,43,0.00,,,0.00,meteohub,2013-01-13 11:45:00,
2013-01-13 04:50:00,-19.7,-35.3,31.38,NE,45,0.0,0.0,43,0.00,,,0.00,meteohub,2013-01-13 11:50:00,
2013-01-13 04:56:00,-19.8,-35.5,31.38,North,0,0.0,0.0,43,0.00,,,0.00,meteohub,2013-01-13 11:56:00,
2013-01-13 05:01:00,-19.7,-35.3,31.38,SW,225,0.0,0.0,43,0.00,,,0.00,meteohub,2013-01-13 12:01:00,
2013-01-13 05:07:00,-19.7,-35.3,31.38,SW,225,0.0,0.0,43,0.00,,,0.00,meteohub,2013-01-13 12:07:00,
2013-01-13 05:13:00,-20.4,-35.9,31.38,West,270,0.0,0.0,43,0.00,,,0.00,meteohub,2013-01-13 12:13:00,
2013-01-13 05:18:00,-20.6,-36.0,31.38,SW,225,0.0,0.0,43,0.00,,,0.00,meteohub,2013-01-13 12:18:00,
2013-01-13 05:24:00,-20.7,-36.2,31.38,South,180,0.0,0.0,43,0.00,,,0.00,meteohub,2013-01-13 12:24:00,
2013-01-13 05:29:00,-20.9,-36.4,31.38,West,270,0.0,0.0,43,0.00,,,0.00,meteohub,2013-01-13 12:29:00,
2013-01-13 05:35:00,-20.9,-36.4,31.39,SW,225,0.0,0.0,43,0.00,,,0.00,meteohub,2013-01-13 12:35:00,
2013-01-13 05:41:00,-21.1,-36.6,31.38,SW,225,0.0,0.0,43,0.00,,,0.00,meteohub,2013-01-13 12:41:00,
2013-01-13 05:47:00,-21.1,-36.6,31.39,SW,225,0.0,0.0,43,0.00,,,0.00,meteohub,2013-01-13 12:47:00,
2013-01-13 05:52:00,-20.9,-36.4,31.39,SW,225,0.0,0.0,43,0.00,,,0.00,meteohub,2013-01-13 12:52:00,
2013-01-13 05:57:00,-20.9,-36.4,31.39,South,180,0.0,0.0,43,0.00,,,0.00,meteohub,2013-01-13 12:57:00,
2013-01-13 06:02:00,-20.7,-36.2,31.39,West,270,0.0,0.0,43,0.00,,,0.00,meteohub,2013-01-13 13:02:00,
2013-01-13 06:07:00,-20.6,-36.0,31.39,SW,225,0.0,0.0,43,0.00,,,0.00,meteohub,2013-01-13 13:07:00,
2013-01-13 06:13:00,-20.6,-36.0,31.39,West,270,0.0,0.0,43,0.00,,,0.00,meteohub,2013-01-13 13:13:00,
2013-01-13 06:18:00,-20.2,-35.7,31.39,SW,225,0.0,0.0,43,0.00,,,0.00,meteohub,2013-01-13 13:18:00,
2013-01-13 06:24:00,-20.2,-35.7,31.39,SW,225,0.0,0.0,43,0.00,,,0.00,meteohub,2013-01-13 13:24:00,
2013-01-13 06:29:00,-20.2,-35.7,31.39,West,270,0.0,0.0,43,0.00,,,0.00,meteohub,2013-01-13 13:29:00,
2013-01-13 06:35:00,-20.0,-35.5,31.40,SW,225,0.0,0.0,43,0.00,,,0.00,meteohub,2013-01-13 13:35:00,
2013-01-13 06:40:00,-20.0,-35.5,31.40,SW,225,0.0,0.0,43,0.00,,,0.00,meteohub,2013-01-13 13:40:00,
2013-01-13 06:46:00,-20.0,-35.5,31.40,SW,225,0.0,0.0,43,0.00,,,0.00,meteohub,2013-01-13 13:46:00,
2013-01-13 06:51:00,-20.0,-35.5,31.40,SW,225,0.0,0.0,43,0.00,,,0.00,meteohub,2013-01-13 13:51:00,
2013-01-13 06:57:00,-19.8,-35.5,31.40,NW,315,0.0,0.0,43,0.00,,,0.00,meteohub,2013-01-13 13:57:00,
2013-01-13 07:02:00,-19.7,-35.3,31.41,NW,315,0.0,0.0,43,0.00,,,0.00,meteohub,2013-01-13 14:02:00,
2013-01-13 07:07:00,-19.7,-35.3,31.40,NW,315,0.0,0.0,43,0.00,,,0.00,meteohub,2013-01-13 14:07:00,
2013-01-13 07:12:00,-20.0,-35.5,31.40,West,270,0.0,0.0,43,0.00,,,0.00,meteohub,2013-01-13 14:12:00,
2013-01-13 07:17:00,-20.0,-35.5,31.41,West,270,0.0,0.0,43,0.00,,,0.00,meteohub,2013-01-13 14:17:00,
2013-01-13 07:22:00,-20.2,-35.7,31.41,South,180,0.0,0.0,43,0.00,,,0.00,meteohub,2013-01-13 14:22:00,
2013-01-13 07:27:00,-20.2,-35.7,31.41,SW,225,0.0,0.0,43,0.00,,,0.00,meteohub,2013-01-13 14:27:00,
2013-01-13 07:32:00,-19.7,-35.3,31.41,SW,225,0.0,0.0,43,0.00,,,0.00,meteohub,2013-01-13 14:32:00,
2013-01-13 07:37:00,-19.3,-35.0,31.41,West,270,0.0,0.0,43,0.00,,,0.00,meteohub,2013-01-13 14:37:00,
2013-01-13 07:42:00,-18.8,-34.1,31.41,South,180,0.0,0.0,44,0.00,,,0.00,meteohub,2013-01-13 14:42:00,
2013-01-13 07:47:00,-18.4,-34.1,31.41,West,270,0.0,0.0,43,0.00,,,0.00,meteohub,2013-01-13 14:47:00,
2013-01-13 07:53:00,-17.9,-33.5,31.41,South,180,0.0,0.0,43,0.00,,,0.00,meteohub,2013-01-13 14:53:00,
2013-01-13 07:58:00,-17.5,-33.3,31.41,SW,225,0.0,0.0,43,0.00,,,0.00,meteohub,2013-01-13 14:58:00,
2013-01-13 08:04:00,-16.8,-32.6,31.41,SW,225,0.0,0.0,43,0.00,,,0.00,meteohub,2013-01-13 15:04:00,
2013-01-13 08:09:00,-16.2,-30.5,31.42,SW,225,0.0,0.0,47,0.00,,,0.00,meteohub,2013-01-13 15:09:00,
2013-01-13 08:15:00,-15.3,-29.2,31.42,NE,45,0.0,0.0,48,0.00,,,0.00,meteohub,2013-01-13 15:15:00,
2013-01-13 08:21:00,-14.3,-28.7,31.41,NE,45,0.0,0.0,47,0.00,,,0.00,meteohub,2013-01-13 15:21:00,
2013-01-13 08:26:00,-12.6,-27.2,31.42,West,270,0.0,0.0,47,0.00,,,0.00,meteohub,2013-01-13 15:26:00,
2013-01-13 08:31:00,-10.8,-25.4,31.42,South,180,0.0,0.0,47,0.00,,,0.00,meteohub,2013-01-13 15:31:00,
2013-01-13 08:37:00,-9.4,-24.5,31.42,WNW,293,0.0,0.0,46,0.00,,,0.00,meteohub,2013-01-13 15:37:00,
2013-01-13 08:42:00,-7.8,-23.1,31.42,SW,225,0.0,0.0,46,0.00,,,0.00,meteohub,2013-01-13 15:42:00,
2013-01-13 08:47:00,-6.5,-20.4,31.42,ENE,68,0.0,0.0,50,0.00,,,0.00,meteohub,2013-01-13 15:47:00,
2013-01-13 08:52:00,-5.3,-19.5,31.42,East,90,0.0,2.0,49,0.00,,,0.00,meteohub,2013-01-13 15:52:00,
2013-01-13 08:57:00,-4.5,-18.8,31.42,NE,45,0.0,2.0,49,0.00,,,0.00,meteohub,2013-01-13 15:57:00,
2013-01-13 09:02:00,-4.0,-19.1,31.42,NW,315,0.0,2.0,47,0.00,,,0.00,meteohub,2013-01-13 16:02:00,
2013-01-13 09:07:00,-4.0,-19.1,31.42,NW,315,0.0,0.0,47,0.00,,,0.00,meteohub,2013-01-13 16:07:00,
2013-01-13 09:12:00,-2.9,-18.6,31.42,East,90,0.0,0.0,46,0.00,,,0.00,meteohub,2013-01-13 16:12:00,
2013-01-13 09:17:00,-2.6,-18.6,31.42,NE,45,2.0,0.0,45,0.00,,,0.00,meteohub,2013-01-13 16:17:00,
2013-01-13 09:23:00,-3.5,-19.8,31.42,NE,45,0.0,3.0,44,0.00,,,0.00,meteohub,2013-01-13 16:23:00,
2013-01-13 09:28:00,-3.5,-20.4,31.42,NE,45,0.0,3.0,43,0.00,,,0.00,meteohub,2013-01-13 16:28:00,
2013-01-13 09:34:00,-3.1,-20.0,31.42,NE,45,0.0,3.0,43,0.00,,,0.00,meteohub,2013-01-13 16:34:00,
2013-01-13 09:39:00,-2.6,-19.5,31.42,NE,45,0.0,0.0,43,0.00,,,0.00,meteohub,2013-01-13 16:39:00,
2013-01-13 09:45:00,-2.0,-20.4,31.42,ENE,68,0.0,0.0,40,0.00,,,0.00,meteohub,2013-01-13 16:45:00,
2013-01-13 09:50:00,-1.8,-21.3,31.42,SE,135,0.0,0.0,38,0.00,,,0.00,meteohub,2013-01-13 16:50:00,
2013-01-13 09:56:00,-0.9,-20.0,31.42,North,0,0.0,0.0,39,0.00,,,0.00,meteohub,2013-01-13 16:56:00,
2013-01-13 10:01:00,-0.2,-20.4,31.42,East,90,0.0,0.0,37,0.00,,,0.00,meteohub,2013-01-13 17:01:00,
2013-01-13 10:07:00,0.0,-20.7,31.42,West,270,0.0,0.0,36,0.00,,,0.00,meteohub,2013-01-13 17:07:00,
2013-01-13 10:12:00,0.0,-21.3,31.42,East,90,2.0,0.0,35,0.00,,,0.00,meteohub,2013-01-13 17:12:00,
2013-01-13 10:17:00,-0.4,-22.0,31.41,SE,135,0.0,3.0,34,0.00,,,0.00,meteohub,2013-01-13 17:17:00,
2013-01-13 10:22:00,0.7,-21.1,31.41,NW,315,0.0,3.0,34,0.00,,,0.00,meteohub,2013-01-13 17:22:00,
2013-01-13 10:27:00,1.8,-17.5,31.41,SE,135,0.0,3.0,39,0.00,,,0.00,meteohub,2013-01-13 17:27:00,
2013-01-13 10:32:00,2.7,-16.6,31.41,SE,135,4.0,4.0,39,0.00,,,0.00,meteohub,2013-01-13 17:32:00,
2013-01-13 10:37:00,3.0,-16.8,31.41,ESE,113,0.0,4.0,38,0.00,,,0.00,meteohub,2013-01-13 17:37:00,
2013-01-13 10:42:00,3.7,-17.3,31.41,SE,135,0.0,4.0,36,0.00,,,0.00,meteohub,2013-01-13 17:42:00,
2013-01-13 10:47:00,4.3,-17.3,31.40,East,90,7.0,7.0,35,0.00,,,0.00,meteohub,2013-01-13 17:47:00,
2013-01-13 10:52:00,4.8,-17.3,31.40,SE,135,4.0,7.0,34,0.00,,,0.00,meteohub,2013-01-13 17:52:00,
2013-01-13 10:57:00,4.6,-18.8,31.40,South,180,4.0,7.0,32,0.00,,,0.00,meteohub,2013-01-13 17:57:00,
2013-01-13 11:02:00,4.6,-19.3,31.40,SE,135,9.0,9.0,31,0.00,,,0.00,meteohub,2013-01-13 18:02:00,
2013-01-13 11:07:00,4.6,-19.3,31.40,SE,135,9.0,9.0,31,0.00,,,0.00,meteohub,2013-01-13 18:07:00,
2013-01-13 11:12:00,6.3,-19.3,31.40,SE,135,4.0,9.0,29,0.00,,,0.00,meteohub,2013-01-13 18:12:00,
2013-01-13 11:17:00,6.6,-18.9,31.39,SE,135,5.0,9.0,29,0.00,,,0.00,meteohub,2013-01-13 18:17:00,
2013-01-13 11:22:00,7.2,-19.8,31.39,SE,135,7.0,9.0,27,0.00,,,0.00,meteohub,2013-01-13 18:22:00,
2013-01-13 11:27:00,7.9,-19.1,31.39,SE,135,4.0,9.0,27,0.00,,,0.00,meteohub,2013-01-13 18:27:00,
2013-01-13 11:32:00,6.3,-21.3,31.39,SE,135,2.0,8.0,26,0.00,,,0.00,meteohub,2013-01-13 18:32:00,
2013-01-13 11:38:00,5.7,-21.1,31.39,East,90,4.0,8.0,27,0.00,,,0.00,meteohub,2013-01-13 18:38:00,
2013-01-13 11:43:00,5.5,-21.3,31.39,South,180,4.0,8.0,27,0.00,,,0.00,meteohub,2013-01-13 18:43:00,
2013-01-13 11:49:00,7.3,-20.4,31.38,SE,135,6.0,8.0,26,0.00,,,0.00,meteohub,2013-01-13 18:49:00,
2013-01-13 11:55:00,8.8,-20.7,31.38,SE,135,4.0,9.0,24,0.00,,,0.00,meteohub,2013-01-13 18:55:00,
2013-01-13 12:00:00,10.4,-16.2,31.37,SE,135,8.0,9.0,28,0.00,,,0.00,meteohub,2013-01-13 19:00:00,
2013-01-13 12:06:00,9.9,-20.6,31.37,NNE,23,4.0,10.0,23,0.00,,,0.00,meteohub,2013-01-13 19:06:00,
2013-01-13 12:11:00,10.9,-15.9,31.37,East,90,8.0,10.0,28,0.00,,,0.00,meteohub,2013-01-13 19:11:00,
2013-01-13 12:17:00,11.7,-15.2,31.37,South,180,6.0,8.0,28,0.00,,,0.00,meteohub,2013-01-13 19:17:00,
2013-01-13 12:22:00,13.5,-14.3,31.37,SE,135,4.0,8.0,27,0.00,,,0.00,meteohub,2013-01-13 19:22:00,
2013-01-13 12:27:00,12.7,-15.0,31.37,East,90,8.0,8.0,27,0.00,,,0.00,meteohub,2013-01-13 19:27:00,
2013-01-13 12:32:00,12.7,-15.0,31.37,SE,135,8.0,9.0,27,0.00,,,0.00,meteohub,2013-01-13 19:32:00,
2013-01-13 12:37:00,11.7,-15.2,31.36,SE,135,4.0,9.0,28,0.00,,,0.00,meteohub,2013-01-13 19:37:00,
2013-01-13 12:42:00,11.7,-15.2,31.36,South,180,10.0,10.0,28,0.00,,,0.00,meteohub,2013-01-13 19:42:00,
2013-01-13 12:48:00,10.2,-19.5,31.36,East,90,7.0,12.0,24,0.00,,,0.00,meteohub,2013-01-13 19:48:00,
2013-01-13 12:53:00,9.9,-19.7,31.36,SE,135,6.0,12.0,24,0.00,,,0.00,meteohub,2013-01-13 19:53:00,
2013-01-13 12:59:00,9.5,-20.0,31.37,SE,135,6.0,12.0,24,0.00,,,0.00,meteohub,2013-01-13 19:59:00,
2013-01-13 13:04:00,9.1,-20.4,31.37,SE,135,8.0,8.0,24,0.00,,,0.00,meteohub,2013-01-13 20:04:00,
2013-01-13 13:10:00,9.3,-20.2,31.37,East,90,7.0,8.0,24,0.00,,,0.00,meteohub,2013-01-13 20:10:00,
2013-01-13 13:15:00,9.0,-20.6,31.36,East,90,9.0,9.0,24,0.00,,,0.00,meteohub,2013-01-13 20:15:00,
2013-01-13 13:21:00,6.4,-21.8,31.36,SE,135,3.0,9.0,25,0.00,,,0.00,meteohub,2013-01-13 20:21:00,
2013-01-13 13:27:00,6.1,-21.5,31.36,SE,135,5.0,9.0,26,0.00,,,0.00,meteohub,2013-01-13 20:27:00,
2013-01-13 13:32:00,5.7,-21.8,31.37,East,90,5.0,9.0,26,0.00,,,0.00,meteohub,2013-01-13 20:32:00,
2013-01-13 13:37:00,5.4,-22.2,31.37,East,90,3.0,9.0,26,0.00,,,0.00,meteohub,2013-01-13 20:37:00,
2013-01-13 13:43:00,5.4,-22.2,31.36,NE,45,2.0,8.0,26,0.00,,,0.00,meteohub,2013-01-13 20:43:00,
2013-01-13 13:48:00,5.5,-21.3,31.37,NE,45,4.0,5.0,27,0.00,,,0.00,meteohub,2013-01-13 20:48:00,
2013-01-13 13:53:00,5.5,-21.3,31.37,SE,135,6.0,8.0,27,0.00,,,0.00,meteohub,2013-01-13 20:53:00,
2013-01-13 13:59:00,5.0,-21.6,31.36,East,90,6.0,8.0,27,0.00,,,0.00,meteohub,2013-01-13 20:59:00,
2013-01-13 14:04:00,4.6,-20.6,31.36,East,90,4.0,8.0,29,0.00,,,0.00,meteohub,2013-01-13 21:04:00,
2013-01-13 14:10:00,5.0,-20.9,31.36,SE,135,5.0,8.0,28,0.00,,,0.00,meteohub,2013-01-13 21:10:00,
2013-01-13 14:16:00,5.0,-21.6,31.37,SE,135,2.0,6.0,27,0.00,,,0.00,meteohub,2013-01-13 21:16:00,
2013-01-13 14:21:00,5.0,-21.6,31.37,SE,135,3.0,6.0,27,0.00,,,0.00,meteohub,2013-01-13 21:21:00,
2013-01-13 14:27:00,5.0,-20.9,31.37,SE,135,4.0,6.0,28,0.00,,,0.00,meteohub,2013-01-13 21:27:00,
2013-01-13 14:32:00,5.0,-20.9,31.37,SE,135,3.0,5.0,28,0.00,,,0.00,meteohub,2013-01-13 21:32:00,
2013-01-13 14:37:00,5.0,-20.4,31.37,SSE,158,4.0,5.0,29,0.00,,,0.00,meteohub,2013-01-13 21:37:00,
2013-01-13 14:42:00,5.2,-20.2,31.37,East,90,4.0,6.0,29,0.00,,,0.00,meteohub,2013-01-13 21:42:00,
2013-01-13 14:47:00,5.2,-20.2,31.38,SE,135,3.0,6.0,29,0.00,,,0.00,meteohub,2013-01-13 21:47:00,
2013-01-13 14:52:00,5.4,-20.0,31.37,SSE,158,4.0,6.0,29,0.00,,,0.00,meteohub,2013-01-13 21:52:00,
2013-01-13 14:58:00,5.7,-19.1,31.37,SE,135,5.0,6.0,30,0.00,,,0.00,meteohub,2013-01-13 21:58:00,
2013-01-13 15:03:00,5.7,-19.1,31.37,SE,135,5.0,6.0,30,0.00,,,0.00,meteohub,2013-01-13 22:03:00,
2013-01-13 15:09:00,5.2,-18.9,31.38,SE,135,5.0,6.0,31,0.00,,,0.00,meteohub,2013-01-13 22:09:00,
2013-01-13 15:14:00,4.6,-18.8,31.38,SE,135,5.0,5.0,32,0.00,,,0.00,meteohub,2013-01-13 22:14:00,
2013-01-13 15:20:00,4.1,-18.0,31.39,SE,135,7.0,8.0,34,0.00,,,0.00,meteohub,2013-01-13 22:20:00,
2013-01-13 15:25:00,3.7,-18.4,31.39,South,180,6.0,8.0,34,0.00,,,0.00,meteohub,2013-01-13 22:25:00,
2013-01-13 15:31:00,3.2,-17.7,31.39,South,180,7.0,8.0,36,0.00,,,0.00,meteohub,2013-01-13 22:31:00,
2013-01-13 15:36:00,2.8,-17.0,31.38,SE,135,4.0,8.0,38,0.00,,,0.00,meteohub,2013-01-13 22:36:00,
2013-01-13 15:42:00,2.3,-17.0,31.39,SE,135,5.0,8.0,39,0.00,,,0.00,meteohub,2013-01-13 22:42:00,
2013-01-13 15:47:00,1.9,-16.4,31.39,South,180,4.0,9.0,41,0.00,,,0.00,meteohub,2013-01-13 22:47:00,
2013-01-13 15:52:00,1.8,-15.5,31.39,SSE,158,8.0,9.0,43,0.00,,,0.00,meteohub,2013-01-13 22:52:00,
2013-01-13 15:58:00,1.4,-15.0,31.39,South,180,8.0,8.0,45,0.00,,,0.00,meteohub,2013-01-13 22:58:00,
2013-01-13 16:03:00,1.0,-16.8,31.39,SE,135,5.0,11.0,42,0.00,,,0.00,meteohub,2013-01-13 23:03:00,
2013-01-13 16:09:00,0.9,-16.4,31.39,South,180,6.0,11.0,43,0.00,,,0.00,meteohub,2013-01-13 23:09:00,
2013-01-13 16:14:00,0.7,-16.1,31.39,South,180,8.0,11.0,44,0.00,,,0.00,meteohub,2013-01-13 23:14:00,
2013-01-13 16:20:00,0.7,-15.7,31.39,SE,135,6.0,11.0,45,0.00,,,0.00,meteohub,2013-01-13 23:20:00,
2013-01-13 16:26:00,0.5,-15.3,31.39,SE,135,7.0,11.0,46,0.00,,,0.00,meteohub,2013-01-13 23:26:00,
2013-01-13 16:31:00,0.3,-14.8,31.40,East,90,8.0,10.0,48,0.00,,,0.00,meteohub,2013-01-13 23:31:00,
2013-01-13 16:36:00,0.1,-14.4,31.39,East,90,7.0,10.0,49,0.00,,,0.00,meteohub,2013-01-13 23:36:00,
2013-01-13 16:42:00,0.0,-13.9,31.39,SE,135,10.0,10.0,51,0.00,,,0.00,meteohub,2013-01-13 23:42:00,
2013-01-13 16:47:00,0.0,-13.9,31.40,East,90,8.0,10.0,51,0.00,,,0.00,meteohub,2013-01-13 23:47:00,
2013-01-13 16:53:00,-0.2,-13.7,31.40,ESE,113,11.0,11.0,52,0.00,,,0.00,meteohub,2013-01-13 23:53:00,
2013-01-13 16:58:00,-0.4,-13.9,31.40,SSE,158,7.0,10.0,52,0.00,,,0.00,meteohub,2013-01-13 23:58:00,
2013-01-13 17:04:00,-0.4,-13.9,31.40,South,180,5.0,11.0,52,0.00,,,0.00,meteohub,2013-01-14 00:04:00,
2013-01-13 17:10:00,-0.4,-13.4,31.40,SW,225,4.0,11.0,53,0.00,,,0.00,meteohub,2013-01-14 00:10:00,
2013-01-13 17:15:00,-0.6,-13.2,31.40,ESE,113,8.0,8.0,54,0.00,,,0.00,meteohub,2013-01-14 00:15:00,
2013-01-13 17:21:00,-0.6,-13.2,31.41,East,90,4.0,8.0,54,0.00,,,0.00,meteohub,2013-01-14 00:21:00,
2013-01-13 17:27:00,-0.8,-13.4,31.40,East,90,5.0,8.0,54,0.00,,,0.00,meteohub,2013-01-14 00:27:00,
2013-01-13 17:32:00,-0.9,-13.5,31.40,SE,135,9.0,9.0,54,0.00,,,0.00,meteohub,2013-01-14 00:32:00,
2013-01-13 17:37:00,-0.9,-13.5,31.40,SE,135,6.0,9.0,54,0.00,,,0.00,meteohub,2013-01-14 00:37:00,
2013-01-13 17:42:00,-1.1,-13.7,31.40,SE,135,5.0,10.0,54,0.00,,,0.00,meteohub,2013-01-14 00:42:00,
2013-01-13 17:47:00,-1.3,-13.9,31.41,East,90,3.0,10.0,54,0.00,,,0.00,meteohub,2013-01-14 00:47:00,
2013-01-13 17:52:00,-1.3,-13.9,31.40,SE,135,4.0,10.0,54,0.00,,,0.00,meteohub,2013-01-14 00:52:00,
2013-01-13 17:58:00,-1.3,-13.5,31.41,SE,135,8.0,10.0,55,0.00,,,0.00,meteohub,2013-01-14 00:58:00,
2013-01-13 18:03:00,-1.3,-13.5,31.41,South,180,6.0,10.0,55,0.00,,,0.00,meteohub,2013-01-14 01:03:00,
2013-01-13 18:09:00,-1.3,-13.5,31.41,SE,135,5.0,8.0,55,0.00,,,0.00,meteohub,2013-01-14 01:09:00,
2013-01-13 18:14:00,-1.5,-13.7,31.41,SE,135,5.0,8.0,55,0.00,,,0.00,meteohub,2013-01-14 01:14:00,
2013-01-13 18:20:00,-1.5,-13.7,31.41,South,180,2.0,7.0,55,0.00,,,0.00,meteohub,2013-01-14 01:20:00,
2013-01-13 18:26:00,-1.5,-13.7,31.42,SE,135,4.0,8.0,55,0.00,,,0.00,meteohub,2013-01-14 01:26:00,
2013-01-13 18:31:00,-1.5,-13.7,31.42,South,180,5.0,8.0,55,0.00,,,0.00,meteohub,2013-01-14 01:31:00,
2013-01-13 18:37:00,-1.3,-13.5,31.42,SE,135,6.0,8.0,55,0.00,,,0.00,meteohub,2013-01-14 01:37:00,
2013-01-13 18:42:00,-1.3,-13.2,31.42,South,180,5.0,9.0,56,0.00,,,0.00,meteohub,2013-01-14 01:42:00,
2013-01-13 18:47:00,-1.3,-13.2,31.42,SE,135,7.0,9.0,56,0.00,,,0.00,meteohub,2013-01-14 01:47:00,
2013-01-13 18:52:00,-1.5,-13.4,31.42,East,90,3.0,9.0,56,0.00,,,0.00,meteohub,2013-01-14 01:52:00,
2013-01-13 18:57:00,-1.5,-13.4,31.42,SE,135,4.0,7.0,56,0.00,,,0.00,meteohub,2013-01-14 01:57:00,
2013-01-13 19:03:00,-1.5,-13.4,31.42,East,90,4.0,7.0,56,0.00,,,0.00,meteohub,2013-01-14 02:03:00,
2013-01-13 19:08:00,-1.7,-13.9,31.42,SE,135,4.0,7.0,55,0.00,,,0.00,meteohub,2013-01-14 02:08:00,
2013-01-13 19:14:00,-1.7,-13.9,31.42,SE,135,5.0,6.0,55,0.00,,,0.00,meteohub,2013-01-14 02:14:00,
2013-01-13 19:19:00,-1.8,-14.1,31.42,South,180,4.0,7.0,55,0.00,,,0.00,meteohub,2013-01-14 02:19:00,
2013-01-13 19:25:00,-1.8,-14.1,31.42,SE,135,4.0,7.0,55,0.00,,,0.00,meteohub,2013-01-14 02:25:00,
2013-01-13 19:30:00,-2.0,-14.3,31.42,ENE,68,4.0,8.0,55,0.00,,,0.00,meteohub,2013-01-14 02:30:00,
2013-01-13 19:36:00,-2.0,-14.6,31.42,SSE,158,4.0,8.0,54,0.00,,,0.00,meteohub,2013-01-14 02:36:00,
2013-01-13 19:41:00,-2.0,-14.6,31.42,East,90,6.0,8.0,54,0.00,,,0.00,meteohub,2013-01-14 02:41:00,
2013-01-13 19:47:00,-2.2,-14.8,31.42,ENE,68,4.0,8.0,54,0.00,,,0.00,meteohub,2013-01-14 02:47:00,
2013-01-13 19:52:00,-2.2,-14.8,31.42,SE,135,6.0,8.0,54,0.00,,,0.00,meteohub,2013-01-14 02:52:00,
2013-01-13 19:57:00,-2.4,-14.6,31.42,ESE,113,5.0,8.0,55,0.00,,,0.00,meteohub,2013-01-14 02:57:00,
2013-01-13 20:02:00,-2.6,-14.8,31.42,SE,135,5.0,9.0,55,0.00,,,0.00,meteohub,2013-01-14 03:02:00,
2013-01-13 20:07:00,-2.7,-15.0,31.42,East,90,3.0,9.0,55,0.00,,,0.00,meteohub,2013-01-14 03:07:00,
2013-01-13 20:12:00,-3.1,-15.2,31.43,SE,135,4.0,9.0,55,0.00,,,0.00,meteohub,2013-01-14 03:12:00,
2013-01-13 20:17:00,-3.3,-15.3,31.43,SSE,158,4.0,8.0,55,0.00,,,0.00,meteohub,2013-01-14 03:17:00,
2013-01-13 20:22:00,-3.5,-15.5,31.42,South,180,2.0,7.0,55,0.00,,,0.00,meteohub,2013-01-14 03:22:00,
2013-01-13 20:27:00,-3.6,-15.7,31.42,SE,135,3.0,6.0,55,0.00,,,0.00,meteohub,2013-01-14 03:27:00,
2013-01-13 20:32:00,-4.0,-16.1,31.42,SE,135,3.0,6.0,55,0.00,,,0.00,meteohub,2013-01-14 03:32:00,
2013-01-13 20:37:00,-4.0,-16.1,31.42,East,90,2.0,4.0,55,0.00,,,0.00,meteohub,2013-01-14 03:37:00,
2013-01-13 20:43:00,-4.0,-16.1,31.43,South,180,2.0,5.0,55,0.00,,,0.00,meteohub,2013-01-14 03:43:00,
2013-01-13 20:48:00,-4.2,-15.9,31.42,South,180,3.0,5.0,56,0.00,,,0.00,meteohub,2013-01-14 03:48:00,
2013-01-13 20:54:00,-4.7,-16.8,31.42,SE,135,0.0,5.0,55,0.00,,,0.00,meteohub,2013-01-14 03:54:00,
2013-01-13 20:59:00,-5.3,-17.3,31.42,South,180,0.0,4.0,55,0.00,,,0.00,meteohub,2013-01-14 03:59:00,
2013-01-13 21:05:00,-5.3,-17.3,31.42,South,180,0.0,2.0,55,0.00,,,0.00,meteohub,2013-01-14 04:05:00,
2013-01-13 21:11:00,-7.1,-18.9,31.42,North,0,0.0,0.0,55,0.00,,,0.00,meteohub,2013-01-14 04:11:00,
2013-01-13 21:16:00,-7.1,-18.9,31.42,North,0,0.0,0.0,55,0.00,,,0.00,meteohub,2013-01-14 04:16:00,
2013-01-13 21:22:00,-6.9,-18.8,31.42,NW,315,0.0,0.0,55,0.00,,,0.00,meteohub,2013-01-14 04:22:00,
2013-01-13 21:27:00,-7.1,-18.9,31.43,North,0,0.0,0.0,55,0.00,,,0.00,meteohub,2013-01-14 04:27:00,
2013-01-13 21:32:00,-7.4,-19.3,31.42,South,180,0.0,0.0,55,0.00,,,0.00,meteohub,2013-01-14 04:32:00,
2013-01-13 21:37:00,-8.1,-21.5,31.43,South,180,0.0,0.0,51,0.00,,,0.00,meteohub,2013-01-14 04:37:00,
2013-01-13 21:42:00,-8.7,-22.0,31.43,South,180,0.0,0.0,51,0.00,,,0.00,meteohub,2013-01-14 04:42:00,
2013-01-13 21:48:00,-8.9,-22.5,31.43,South,180,0.0,0.0,50,0.00,,,0.00,meteohub,2013-01-14 04:48:00,
2013-01-13 21:53:00,-9.0,-22.7,31.43,South,180,0.0,0.0,50,0.00,,,0.00,meteohub,2013-01-14 04:53:00,
2013-01-13 21:59:00,-9.2,-22.9,31.43,South,180,0.0,0.0,50,0.00,,,0.00,meteohub,2013-01-14 04:59:00,
2013-01-13 22:00:00,-9.2,-22.9,31.43,South,180,0.0,0.0,50,0.00,,,0.00,meteohub,2013-01-14 05:00:00,
2013-01-13 22:01:00,-9.4,-22.9,31.43,South,180,0.0,0.0,50,0.00,,,0.00,meteohub,2013-01-14 05:01:00,
2013-01-13 22:07:00,-9.6,-22.7,31.43,South,180,0.0,0.0,51,0.00,,,0.00,meteohub,2013-01-14 05:07:00,
2013-01-13 22:11:00,-9.8,-22.9,31.43,South,180,0.0,0.0,51,0.00,,,0.00,meteohub,2013-01-14 05:11:00,
2013-01-13 22:17:00,-9.8,-22.9,31.43,SW,225,0.0,0.0,51,0.00,,,0.00,meteohub,2013-01-14 05:17:00,
2013-01-13 22:19:00,-9.9,-23.4,31.43,SW,225,0.0,0.0,50,0.00,,,0.00,meteohub,2013-01-14 05:19:00,
2013-01-13 22:25:00,-10.3,-23.8,31.43,SW,225,0.0,0.0,50,0.00,,,0.00,meteohub,2013-01-14 05:25:00,
2013-01-13 22:30:00,-10.7,-24.2,31.44,South,180,0.0,0.0,50,0.00,,,0.00,meteohub,2013-01-14 05:30:00,
2013-01-13 22:36:00,-11.0,-24.9,31.43,South,180,0.0,0.0,49,0.00,,,0.00,meteohub,2013-01-14 05:36:00,
2013-01-13 22:41:00,-11.2,-25.1,31.43,South,180,0.0,0.0,49,0.00,,,0.00,meteohub,2013-01-14 05:41:00,
2013-01-13 22:47:00,-11.6,-25.1,31.44,South,180,0.0,0.0,50,0.00,,,0.00,meteohub,2013-01-14 05:47:00,
2013-01-13 22:52:00,-11.9,-25.8,31.44,West,270,0.0,0.0,49,0.00,,,0.00,meteohub,2013-01-14 05:52:00,
2013-01-13 22:57:00,-11.9,-25.8,31.43,SW,225,0.0,0.0,49,0.00,,,0.00,meteohub,2013-01-14 05:57:00,
2013-01-13 23:02:00,-11.9,-25.8,31.43,SW,225,0.0,0.0,49,0.00,,,0.00,meteohub,2013-01-14 06:02:00,
2013-01-13 23:07:00,-11.9,-25.8,31.44,SW,225,0.0,0.0,49,0.00,,,0.00,meteohub,2013-01-14 06:07:00,
2013-01-13 23:12:00,-11.9,-25.4,31.44,SW,225,0.0,0.0,50,0.00,,,0.00,meteohub,2013-01-14 06:12:00,
2013-01-13 23:18:00,-11.7,-25.2,31.44,SW,225,0.0,0.0,50,0.00,,,0.00,meteohub,2013-01-14 06:18:00,
2013-01-13 23:24:00,-11.9,-25.4,31.44,SW,225,0.0,0.0,50,0.00,,,0.00,meteohub,2013-01-14 06:24:00,
2013-01-13 23:29:00,-12.1,-25.4,31.44,SW,225,0.0,0.0,50,0.00,,,0.00,meteohub,2013-01-14 06:29:00,
2013-01-13 23:34:00,-12.3,-26.0,31.44,SW,225,0.0,0.0,49,0.00,,,0.00,meteohub,2013-01-14 06:34:00,
2013-01-13 23:40:00,-12.6,-26.3,31.44,SW,225,0.0,0.0,49,0.00,,,0.00,meteohub,2013-01-14 06:40:00,
2013-01-13 23:46:00,-13.0,-26.7,31.44,SW,225,0.0,0.0,49,0.00,,,0.00,meteohub,2013-01-14 06:46:00,
2013-01-13 23:52:00,-13.2,-26.9,31.44,SW,225,0.0,0.0,49,0.00,,,0.00,meteohub,2013-01-14 06:52:00,
2013-01-13 23:57:00,-13.5,-27.2,31.44,SW,225,0.0,0.0,49,0.00,,,0.00,meteohub,2013-01-14 06:57:00,